268  
SXUS52 KJAX 130513  
OSOJAX  
OTHER SURFACE OBSERVATIONS  
NATIONAL WEATHER SERVICE JACKSONVILLE FL  
100 AM EDT SAT AUG 13 2022  
 
FLZ020>025-030>033-035>038-040-130600-   
..FLORIDA
 
 
 
CITY SKY/WX TMP DP RH WIND PRES REMARKS  
CECIL FIELD CLOUDY 77 75 94 CALM 30.05S  
FERNANDINA BCH LGT RAIN 75 73 94 SE7 30.05F  
LAKE CITY CLOUDY 73 70 88 S3 30.04R  
KEYSTONE HGTS CLOUDY 75 75 100 CALM 30.05S  

 
 
GAZ132>136-149>154-162>166-130600-   
..GEORGIA
 
 
 
CITY SKY/WX TMP DP RH WIND PRES REMARKS  
JESUP FAIR 73 72 94 CALM 30.04F  
HOMERVILLE MOCLDY 73 72 95 SE3 30.03F  
SWAINSBORO CLOUDY 72 72 100 E7 30.04S  
CORDELE CLOUDY 76 73 90 SW3 30.03F  
EASTMAN MOCLDY 73 72 94 CALM 30.02F  

 
 
PLEASE NOTE: THESE OBSERVATIONS ARE NOT QUALITY CONTROLLED AND MAY  
NOT BE AVAILABLE AT ALL TIMES.  

 
 
 
CLICK HERE TO GO TO PREVIOUS BULLETINS.

The Nexlab FL Page
The Nexlab GA Page Main Text Page